Time,TemperatureF,DewpointF,PressureIn,WindDirection,WindDirectionDegrees,WindSpeedMPH,WindSpeedGustMPH,Humidity,HourlyPrecipIn,Conditions,Clouds,dailyrainin,SoftwareType,DateUTC
2013-05-02 00:00:00,33.0,31.7,30.56,NNW,331,5.0,30.0,95,0.00,,,1.27,Wunderground v.1.15,2013-05-02 05:00:00,
2013-05-02 00:05:00,33.0,31.7,30.55,NNW,331,5.0,30.0,95,0.00,,,0.00,Wunderground v.1.15,2013-05-02 05:05:00,
2013-05-02 00:15:00,33.1,31.8,30.56,NW,313,7.0,30.0,95,0.00,,,0.00,Wunderground v.1.15,2013-05-02 05:15:00,
2013-05-02 00:20:00,33.3,32.0,30.56,NW,319,8.0,8.0,95,0.00,,,0.00,Wunderground v.1.15,2013-05-02 05:20:00,
2013-05-02 00:25:00,33.4,32.1,30.56,NNW,329,7.0,30.0,95,0.00,,,0.00,Wunderground v.1.15,2013-05-02 05:25:00,
2013-05-02 00:30:00,33.5,32.2,30.57,NNW,339,6.0,30.0,95,0.00,,,0.00,Wunderground v.1.15,2013-05-02 05:30:00,
2013-05-02 00:40:00,33.8,32.5,30.55,North,10,7.0,30.0,95,0.00,,,0.01,Wunderground v.1.15,2013-05-02 05:40:00,
2013-05-02 00:45:00,34.0,32.5,30.55,NNW,334,8.0,30.0,94,0.00,,,0.01,Wunderground v.1.15,2013-05-02 05:45:00,
2013-05-02 00:50:00,34.3,32.5,30.56,NNE,15,9.0,30.0,93,0.00,,,0.01,Wunderground v.1.15,2013-05-02 05:50:00,
2013-05-02 01:00:00,34.4,32.3,30.55,North,5,8.0,30.0,92,0.00,,,0.01,Wunderground v.1.15,2013-05-02 06:00:00,
2013-05-02 01:05:00,34.6,32.2,30.55,North,355,9.0,30.0,91,0.00,,,0.02,Wunderground v.1.15,2013-05-02 06:05:00,
2013-05-02 01:10:00,34.6,32.2,30.56,NNW,348,9.0,30.0,91,0.00,,,0.02,Wunderground v.1.15,2013-05-02 06:10:00,
2013-05-02 01:15:00,34.7,32.1,30.56,North,355,9.0,30.0,90,0.00,,,0.02,Wunderground v.1.15,2013-05-02 06:15:00,
2013-05-02 01:25:00,34.7,32.1,30.56,NNW,347,9.0,30.0,90,0.00,,,0.02,Wunderground v.1.15,2013-05-02 06:25:00,
2013-05-02 01:35:00,34.9,32.3,30.56,NNW,347,9.0,30.0,90,0.00,,,0.03,Wunderground v.1.15,2013-05-02 06:35:00,
2013-05-02 01:40:00,35.0,32.1,30.55,NNE,13,9.0,30.0,89,0.00,,,0.03,Wunderground v.1.15,2013-05-02 06:40:00,
2013-05-02 01:45:00,35.0,32.1,30.56,NNW,338,9.0,30.0,89,0.00,,,0.03,Wunderground v.1.15,2013-05-02 06:45:00,
2013-05-02 01:55:00,35.0,31.8,30.57,NNE,15,8.0,30.0,88,0.00,,,0.03,Wunderground v.1.15,2013-05-02 06:55:00,
2013-05-02 02:00:00,35.1,31.9,30.58,North,9,7.0,30.0,88,0.00,,,0.03,Wunderground v.1.15,2013-05-02 07:00:00,
2013-05-02 02:05:00,35.1,31.9,30.58,NNW,346,8.0,30.0,88,0.00,,,0.04,Wunderground v.1.15,2013-05-02 07:05:00,
2013-05-02 02:15:00,35.1,31.6,30.58,NNW,344,9.0,30.0,87,0.00,,,0.04,Wunderground v.1.15,2013-05-02 07:15:00,
2013-05-02 02:20:00,35.0,31.5,30.58,NW,314,9.0,9.0,87,0.00,,,0.04,Wunderground v.1.15,2013-05-02 07:20:00,
2013-05-02 02:29:00,34.9,31.7,30.56,NNE,19,8.0,30.0,88,0.00,,,0.04,Wunderground v.1.15,2013-05-02 07:29:00,
2013-05-02 02:35:00,35.0,31.5,30.57,NNW,342,8.0,30.0,87,0.00,,,0.04,Wunderground v.1.15,2013-05-02 07:35:00,
2013-05-02 02:40:00,35.1,31.6,30.57,NNE,13,9.0,9.0,87,0.00,,,0.04,Wunderground v.1.15,2013-05-02 07:40:00,
2013-05-02 02:45:00,35.1,31.3,30.57,NNW,348,9.0,30.0,86,0.00,,,0.04,Wunderground v.1.15,2013-05-02 07:45:00,
2013-05-02 02:50:00,35.1,31.3,30.58,NNW,348,8.0,8.0,86,0.00,,,0.05,Wunderground v.1.15,2013-05-02 07:50:00,
2013-05-02 03:00:00,35.2,31.4,30.58,NNW,348,8.0,30.0,86,0.00,,,0.05,Wunderground v.1.15,2013-05-02 08:00:00,
2013-05-02 03:10:00,35.2,31.4,30.56,North,355,9.0,30.0,86,0.00,,,0.05,Wunderground v.1.15,2013-05-02 08:10:00,
2013-05-02 03:15:00,35.1,31.3,30.57,North,360,9.0,30.0,86,0.00,,,0.05,Wunderground v.1.15,2013-05-02 08:15:00,
2013-05-02 03:25:00,35.2,31.4,30.60,NW,309,8.0,30.0,86,0.00,,,0.05,Wunderground v.1.15,2013-05-02 08:25:00,
2013-05-02 03:30:00,35.2,31.4,30.59,North,355,8.0,30.0,86,0.00,,,0.05,Wunderground v.1.15,2013-05-02 08:30:00,
2013-05-02 03:35:00,35.2,31.4,30.60,North,351,8.0,30.0,86,0.00,,,0.05,Wunderground v.1.15,2013-05-02 08:35:00,
2013-05-02 03:45:00,35.2,31.4,30.60,North,351,9.0,30.0,86,0.00,,,0.06,Wunderground v.1.15,2013-05-02 08:45:00,
2013-05-02 03:50:00,35.2,31.4,30.60,NNW,348,9.0,9.0,86,0.00,,,0.06,Wunderground v.1.15,2013-05-02 08:50:00,
2013-05-02 03:55:00,35.2,31.4,30.59,North,355,9.0,30.0,86,0.00,,,0.06,Wunderground v.1.15,2013-05-02 08:55:00,
2013-05-02 04:05:00,35.3,31.5,30.60,North,350,9.0,30.0,86,0.00,,,0.06,Wunderground v.1.15,2013-05-02 09:05:00,
2013-05-02 04:10:00,35.4,31.6,30.61,North,11,8.0,30.0,86,0.00,,,0.06,Wunderground v.1.15,2013-05-02 09:10:00,
2013-05-02 04:20:00,35.4,31.6,30.61,NNW,341,9.0,9.0,86,0.00,,,0.06,Wunderground v.1.15,2013-05-02 09:20:00,
2013-05-02 04:25:00,35.3,31.2,30.61,North,355,9.0,13.0,85,0.00,,,0.06,Wunderground v.1.15,2013-05-02 09:25:00,
2013-05-02 04:30:00,35.4,31.3,30.61,North,5,9.0,9.0,85,0.00,,,0.06,Wunderground v.1.15,2013-05-02 09:30:00,
2013-05-02 04:40:00,35.3,31.2,30.63,NNW,347,9.0,9.0,85,0.00,,,0.06,Wunderground v.1.15,2013-05-02 09:40:00,
2013-05-02 04:45:00,35.3,31.2,30.62,NNW,348,9.0,13.0,85,0.00,,,0.07,Wunderground v.1.15,2013-05-02 09:45:00,
2013-05-02 04:50:00,35.3,31.2,30.63,NNW,345,8.0,8.0,85,0.00,,,0.07,Wunderground v.1.15,2013-05-02 09:50:00,
2013-05-02 04:59:00,35.4,31.3,30.62,North,355,8.0,30.0,85,0.00,,,0.07,Wunderground v.1.15,2013-05-02 09:59:00,
2013-05-02 05:05:00,35.3,31.2,30.63,NNW,344,8.0,30.0,85,0.00,,,0.07,Wunderground v.1.15,2013-05-02 10:05:00,
2013-05-02 05:10:00,35.3,31.2,30.64,NNW,340,8.0,30.0,85,0.00,,,0.07,Wunderground v.1.15,2013-05-02 10:10:00,
2013-05-02 05:20:00,35.3,31.2,30.64,NNW,346,8.0,30.0,85,0.00,,,0.07,Wunderground v.1.15,2013-05-02 10:20:00,
2013-05-02 05:25:00,35.2,31.1,30.63,NNW,333,8.0,30.0,85,0.00,,,0.07,Wunderground v.1.15,2013-05-02 10:25:00,
2013-05-02 05:30:00,35.2,31.1,30.62,North,355,9.0,9.0,85,0.00,,,0.07,Wunderground v.1.15,2013-05-02 10:30:00,
2013-05-02 05:40:00,35.1,31.0,30.62,NNE,22,9.0,30.0,85,0.00,,,0.07,Wunderground v.1.15,2013-05-02 10:40:00,
2013-05-02 05:45:00,35.2,30.9,30.63,NNE,29,9.0,30.0,84,0.00,,,0.07,Wunderground v.1.15,2013-05-02 10:45:00,
2013-05-02 05:50:00,35.4,30.8,30.62,NNE,25,10.0,30.0,83,0.00,,,0.07,Wunderground v.1.15,2013-05-02 10:50:00,
2013-05-02 06:00:00,35.2,30.6,30.63,North,351,9.0,30.0,83,0.00,,,0.07,Wunderground v.1.15,2013-05-02 11:00:00,
2013-05-02 06:05:00,35.2,30.9,30.65,NNW,333,9.0,30.0,84,0.00,,,0.07,Wunderground v.1.15,2013-05-02 11:05:00,
2013-05-02 06:10:00,35.2,30.9,30.65,North,355,8.0,30.0,84,0.00,,,0.07,Wunderground v.1.15,2013-05-02 11:10:00,
2013-05-02 06:15:00,35.1,30.8,30.64,NNW,348,8.0,30.0,84,0.00,,,0.08,Wunderground v.1.15,2013-05-02 11:15:00,
2013-05-02 06:25:00,35.0,30.7,30.65,NNW,340,7.0,12.0,84,0.00,,,0.08,Wunderground v.1.15,2013-05-02 11:25:00,
2013-05-02 06:30:00,35.0,30.7,30.65,North,349,7.0,30.0,84,0.00,,,0.08,Wunderground v.1.15,2013-05-02 11:30:00,
2013-05-02 06:40:00,34.8,30.8,30.65,NNW,333,8.0,30.0,85,0.00,,,0.08,Wunderground v.1.15,2013-05-02 11:40:00,
2013-05-02 06:45:00,34.8,30.5,30.66,NNW,342,8.0,30.0,84,0.00,,,0.08,Wunderground v.1.15,2013-05-02 11:45:00,
2013-05-02 06:55:00,34.8,30.5,30.66,NNW,334,7.0,30.0,84,0.00,,,0.08,Wunderground v.1.15,2013-05-02 11:55:00,
2013-05-02 07:00:00,34.8,30.5,30.66,NNW,337,7.0,30.0,84,0.00,,,0.08,Wunderground v.1.15,2013-05-02 12:00:00,
2013-05-02 07:05:00,34.8,30.5,30.66,North,350,7.0,30.0,84,0.00,,,0.08,Wunderground v.1.15,2013-05-02 12:05:00,
2013-05-02 07:10:00,34.9,30.3,30.67,NNW,346,7.0,30.0,83,0.00,,,0.08,Wunderground v.1.15,2013-05-02 12:10:00,
2013-05-02 07:20:00,35.0,30.7,30.67,NNW,335,7.0,7.0,84,0.00,,,0.08,Wunderground v.1.15,2013-05-02 12:20:00,
2013-05-02 07:25:00,34.9,30.6,30.67,NW,323,7.0,14.0,84,0.00,,,0.08,Wunderground v.1.15,2013-05-02 12:25:00,
2013-05-02 07:30:00,35.1,30.8,30.67,NNW,334,8.0,30.0,84,0.00,,,0.08,Wunderground v.1.15,2013-05-02 12:30:00,
2013-05-02 07:35:00,35.2,30.6,30.68,NW,313,10.0,30.0,83,0.00,,,0.08,Wunderground v.1.15,2013-05-02 12:35:00,
2013-05-02 07:45:00,35.3,30.4,30.69,NW,319,9.0,30.0,82,0.00,,,0.08,Wunderground v.1.15,2013-05-02 12:45:00,
2013-05-02 07:50:00,35.3,30.4,30.69,NNW,342,8.0,8.0,82,0.00,,,0.08,Wunderground v.1.15,2013-05-02 12:50:00,
2013-05-02 08:00:00,35.5,30.2,30.69,North,350,9.0,30.0,81,0.00,,,0.08,Wunderground v.1.15,2013-05-02 13:00:00,
2013-05-02 08:05:00,35.6,30.3,30.69,NNW,338,9.0,30.0,81,0.00,,,0.08,Wunderground v.1.15,2013-05-02 13:05:00,
2013-05-02 08:10:00,35.6,30.3,30.69,North,360,9.0,9.0,81,0.00,,,0.08,Wunderground v.1.15,2013-05-02 13:10:00,
2013-05-02 08:20:00,35.7,30.1,30.69,North,360,9.0,30.0,80,0.00,,,0.08,Wunderground v.1.15,2013-05-02 13:20:00,
2013-05-02 08:25:00,35.9,30.0,30.70,NW,315,10.0,30.0,79,0.00,,,0.08,Wunderground v.1.15,2013-05-02 13:25:00,
2013-05-02 08:30:00,36.1,29.9,30.70,NNE,17,11.0,30.0,78,0.00,,,0.08,Wunderground v.1.15,2013-05-02 13:30:00,
2013-05-02 08:40:00,36.3,30.1,30.70,NNW,339,10.0,30.0,78,0.00,,,0.08,Wunderground v.1.15,2013-05-02 13:40:00,
2013-05-02 08:45:00,36.2,29.7,30.70,NNE,17,10.0,30.0,77,0.00,,,0.08,Wunderground v.1.15,2013-05-02 13:45:00,
2013-05-02 08:50:00,36.3,30.1,30.70,NNW,339,11.0,11.0,78,0.00,,,0.08,Wunderground v.1.15,2013-05-02 13:50:00,
2013-05-02 09:00:00,36.4,30.2,30.69,NNE,14,10.0,10.0,78,0.00,,,0.08,Wunderground v.1.15,2013-05-02 14:00:00,
2013-05-02 09:05:00,36.5,30.0,30.69,NNE,13,11.0,18.0,77,0.00,,,0.08,Wunderground v.1.15,2013-05-02 14:05:00,
2013-05-02 09:15:00,36.7,30.2,30.69,NNW,348,11.0,30.0,77,0.00,,,0.08,Wunderground v.1.15,2013-05-02 14:15:00,
2013-05-02 09:20:00,36.8,30.9,30.69,North,355,9.0,9.0,79,0.00,,,0.08,Wunderground v.1.15,2013-05-02 14:20:00,
2013-05-02 09:25:00,36.9,30.0,30.69,North,360,9.0,12.0,76,0.00,,,0.08,Wunderground v.1.15,2013-05-02 14:25:00,
2013-05-02 09:30:00,37.1,30.9,30.69,NW,321,10.0,10.0,78,0.00,,,0.08,Wunderground v.1.15,2013-05-02 14:30:00,
2013-05-02 09:40:00,37.2,30.7,30.69,North,350,11.0,30.0,77,0.00,,,0.08,Wunderground v.1.15,2013-05-02 14:40:00,
2013-05-02 09:45:00,37.4,30.5,30.69,North,355,11.0,30.0,76,0.00,,,0.08,Wunderground v.1.15,2013-05-02 14:45:00,
2013-05-02 09:50:00,37.8,30.9,30.69,North,5,10.0,10.0,76,0.00,,,0.08,Wunderground v.1.15,2013-05-02 14:50:00,
2013-05-02 09:59:00,38.4,30.8,30.69,NNW,346,11.0,30.0,74,0.00,,,0.08,Wunderground v.1.15,2013-05-02 14:59:00,
2013-05-02 10:05:00,38.6,31.7,30.69,North,355,11.0,30.0,76,0.00,,,0.08,Wunderground v.1.15,2013-05-02 15:05:00,
2013-05-02 10:10:00,39.2,32.3,30.69,North,355,11.0,11.0,76,0.00,,,0.08,Wunderground v.1.15,2013-05-02 15:10:00,
2013-05-02 10:15:00,39.4,31.5,30.69,North,360,11.0,15.0,73,0.00,,,0.08,Wunderground v.1.15,2013-05-02 15:15:00,
2013-05-02 10:25:00,39.6,32.0,30.70,NNW,334,11.0,30.0,74,0.00,,,0.08,Wunderground v.1.15,2013-05-02 15:25:00,
2013-05-02 10:30:00,39.9,31.9,30.70,NE,38,11.0,11.0,73,0.00,,,0.08,Wunderground v.1.15,2013-05-02 15:30:00,
2013-05-02 10:35:00,40.1,32.1,30.70,North,360,12.0,12.0,73,0.00,,,0.08,Wunderground v.1.15,2013-05-02 15:35:00,
2013-05-02 10:45:00,40.7,31.3,30.69,North,350,14.0,30.0,69,0.00,,,0.08,Wunderground v.1.15,2013-05-02 15:45:00,
2013-05-02 10:50:00,41.0,31.2,30.69,North,5,14.0,14.0,68,0.00,,,0.08,Wunderground v.1.15,2013-05-02 15:50:00,
2013-05-02 11:00:00,41.4,32.3,30.69,NNE,13,13.0,13.0,70,0.00,,,0.08,Wunderground v.1.15,2013-05-02 16:00:00,
2013-05-02 11:05:00,41.9,32.5,30.69,NNE,24,12.0,30.0,69,0.00,,,0.08,Wunderground v.1.15,2013-05-02 16:05:00,
2013-05-02 11:15:00,41.6,31.4,30.70,North,9,15.0,15.0,67,0.00,,,0.09,Wunderground v.1.15,2013-05-02 16:15:00,
2013-05-02 11:20:00,41.7,32.3,30.70,NNE,33,15.0,30.0,69,0.00,,,0.09,Wunderground v.1.15,2013-05-02 16:20:00,
2013-05-02 11:25:00,42.0,32.2,30.70,North,5,14.0,30.0,68,0.00,,,0.09,Wunderground v.1.15,2013-05-02 16:25:00,
2013-05-02 11:30:00,41.8,32.4,30.70,NNW,348,15.0,15.0,69,0.00,,,0.09,Wunderground v.1.15,2013-05-02 16:30:00,
2013-05-02 11:40:00,42.4,31.5,30.70,NW,325,15.0,15.0,65,0.00,,,0.09,Wunderground v.1.15,2013-05-02 16:40:00,
2013-05-02 11:45:00,42.5,31.6,30.70,North,355,16.0,16.0,65,0.00,,,0.09,Wunderground v.1.15,2013-05-02 16:45:00,
2013-05-02 11:50:00,42.7,32.5,30.69,North,5,16.0,16.0,67,0.00,,,0.09,Wunderground v.1.15,2013-05-02 16:50:00,
2013-05-02 12:00:00,43.0,31.6,30.69,NNW,342,15.0,30.0,64,0.00,,,0.09,Wunderground v.1.15,2013-05-02 17:00:00,
2013-05-02 12:05:00,43.3,33.4,30.69,NNW,345,15.0,30.0,68,0.00,,,0.09,Wunderground v.1.15,2013-05-02 17:05:00,
2013-05-02 12:10:00,43.3,31.5,30.69,North,5,14.0,14.0,63,0.00,,,0.09,Wunderground v.1.15,2013-05-02 17:10:00,
2013-05-02 12:15:00,43.4,33.5,30.69,NE,34,14.0,30.0,68,0.00,,,0.09,Wunderground v.1.15,2013-05-02 17:15:00,
2013-05-02 12:25:00,43.8,32.4,30.69,North,360,14.0,30.0,64,0.00,,,0.09,Wunderground v.1.15,2013-05-02 17:25:00,
2013-05-02 12:30:00,43.8,32.8,30.69,NNW,346,16.0,16.0,65,0.00,,,0.09,Wunderground v.1.15,2013-05-02 17:30:00,
2013-05-02 12:35:00,44.5,34.2,30.68,North,5,15.0,30.0,67,0.00,,,0.09,Wunderground v.1.15,2013-05-02 17:35:00,
2013-05-02 12:45:00,44.1,31.1,30.68,NNE,22,14.0,15.0,60,0.00,,,0.09,Wunderground v.1.15,2013-05-02 17:45:00,
2013-05-02 12:55:00,45.1,33.6,30.68,NNW,330,13.0,30.0,64,0.00,,,0.09,Wunderground v.1.15,2013-05-02 17:55:00,
2013-05-02 13:00:00,45.3,33.0,30.68,NNE,18,13.0,30.0,62,0.00,,,0.09,Wunderground v.1.15,2013-05-02 18:00:00,
2013-05-02 13:05:00,45.0,32.3,30.67,NNE,12,15.0,30.0,61,0.00,,,0.09,Wunderground v.1.15,2013-05-02 18:05:00,
2013-05-02 13:15:00,45.4,33.1,30.67,North,351,13.0,30.0,62,0.00,,,0.09,Wunderground v.1.15,2013-05-02 18:15:00,
2013-05-02 13:20:00,45.4,34.3,30.67,North,5,14.0,14.0,65,0.00,,,0.09,Wunderground v.1.15,2013-05-02 18:20:00,
2013-05-02 13:25:00,45.5,33.6,30.67,North,355,13.0,30.0,63,0.00,,,0.09,Wunderground v.1.15,2013-05-02 18:25:00,
2013-05-02 13:35:00,45.6,34.5,30.66,North,355,13.0,30.0,65,0.00,,,0.09,Wunderground v.1.15,2013-05-02 18:35:00,
2013-05-02 13:40:00,46.0,34.5,30.66,NNE,21,13.0,13.0,64,0.00,,,0.09,Wunderground v.1.15,2013-05-02 18:40:00,
2013-05-02 13:45:00,46.5,33.8,30.66,North,5,13.0,30.0,61,0.00,,,0.09,Wunderground v.1.15,2013-05-02 18:45:00,
2013-05-02 13:55:00,46.2,34.7,30.65,North,350,14.0,30.0,64,0.00,,,0.09,Wunderground v.1.15,2013-05-02 18:55:00,
2013-05-02 14:00:00,46.7,34.8,30.65,NNE,12,13.0,30.0,63,0.00,,,0.09,Wunderground v.1.15,2013-05-02 19:00:00,
2013-05-02 14:05:00,46.9,35.4,30.65,North,355,13.0,30.0,64,0.00,,,0.09,Wunderground v.1.15,2013-05-02 19:05:00,
2013-05-02 14:15:00,47.3,34.5,30.65,NNE,23,13.0,19.0,61,0.00,,,0.09,Wunderground v.1.15,2013-05-02 19:15:00,
2013-05-02 14:20:00,47.5,33.4,30.65,North,5,14.0,14.0,58,0.00,,,0.09,Wunderground v.1.15,2013-05-02 19:20:00,
2013-05-02 14:25:00,47.9,35.5,30.64,NNW,345,13.0,15.0,62,0.00,,,0.09,Wunderground v.1.15,2013-05-02 19:25:00,
2013-05-02 14:30:00,47.9,35.1,30.64,NE,37,12.0,30.0,61,0.00,,,0.09,Wunderground v.1.15,2013-05-02 19:30:00,
2013-05-02 14:35:00,47.5,32.6,30.64,NNE,16,15.0,30.0,56,0.00,,,0.09,Wunderground v.1.15,2013-05-02 19:35:00,
2013-05-02 14:45:00,47.9,35.1,30.64,NNW,337,14.0,30.0,61,0.00,,,0.09,Wunderground v.1.15,2013-05-02 19:45:00,
2013-05-02 14:50:00,47.7,34.1,30.64,NNE,23,14.0,14.0,59,0.00,,,0.09,Wunderground v.1.15,2013-05-02 19:50:00,
2013-05-02 14:55:00,48.2,35.0,30.64,NNW,346,14.0,15.0,60,0.00,,,0.09,Wunderground v.1.15,2013-05-02 19:55:00,
2013-05-02 15:05:00,48.9,34.8,30.63,North,360,15.0,17.0,58,0.00,,,0.09,Wunderground v.1.15,2013-05-02 20:05:00,
2013-05-02 15:10:00,48.9,34.8,30.63,North,360,14.0,30.0,58,0.00,,,0.09,Wunderground v.1.15,2013-05-02 20:10:00,
2013-05-02 15:15:00,48.9,32.0,30.63,North,5,15.0,30.0,52,0.00,,,0.09,Wunderground v.1.15,2013-05-02 20:15:00,
2013-05-02 15:25:00,48.0,32.6,30.63,North,350,16.0,30.0,55,0.00,,,0.09,Wunderground v.1.15,2013-05-02 20:25:00,
2013-05-02 15:30:00,49.0,35.3,30.62,NNE,24,13.0,30.0,59,0.00,,,0.09,Wunderground v.1.15,2013-05-02 20:30:00,
2013-05-02 15:35:00,49.1,34.5,30.62,NE,34,12.0,30.0,57,0.00,,,0.09,Wunderground v.1.15,2013-05-02 20:35:00,
2013-05-02 15:45:00,48.6,34.5,30.61,North,5,13.0,30.0,58,0.00,,,0.09,Wunderground v.1.15,2013-05-02 20:45:00,
2013-05-02 15:50:00,49.2,33.7,30.61,NNE,13,13.0,30.0,55,0.00,,,0.09,Wunderground v.1.15,2013-05-02 20:50:00,
2013-05-02 16:00:00,49.1,32.7,30.60,NNW,345,15.0,15.0,53,0.00,,,0.09,Wunderground v.1.15,2013-05-02 21:00:00,
2013-05-02 16:05:00,49.6,34.1,30.60,NNW,344,14.0,30.0,55,0.00,,,0.09,Wunderground v.1.15,2013-05-02 21:05:00,
2013-05-02 16:10:00,48.8,31.9,30.60,NNE,18,14.0,30.0,52,0.00,,,0.09,Wunderground v.1.15,2013-05-02 21:10:00,
2013-05-02 16:15:00,49.3,33.3,30.59,NNE,27,13.0,30.0,54,0.00,,,0.09,Wunderground v.1.15,2013-05-02 21:15:00,
2013-05-02 16:25:00,49.6,33.6,30.59,North,9,12.0,30.0,54,0.00,,,0.09,Wunderground v.1.15,2013-05-02 21:25:00,
2013-05-02 16:30:00,49.8,33.8,30.59,NNW,336,12.0,30.0,54,0.00,,,0.09,Wunderground v.1.15,2013-05-02 21:30:00,
2013-05-02 16:35:00,49.2,33.3,30.59,NNW,330,12.0,30.0,54,0.00,,,0.09,Wunderground v.1.15,2013-05-02 21:35:00,
2013-05-02 16:40:00,48.8,32.9,30.59,NNE,19,12.0,30.0,54,0.00,,,0.09,Wunderground v.1.15,2013-05-02 21:40:00,
2013-05-02 16:45:00,49.5,33.1,30.59,NNW,346,12.0,30.0,53,0.00,,,0.09,Wunderground v.1.15,2013-05-02 21:45:00,
2013-05-02 16:55:00,49.9,32.0,30.58,NNE,18,14.0,14.0,50,0.00,,,0.09,Wunderground v.1.15,2013-05-02 21:55:00,
2013-05-02 17:00:00,50.6,33.1,30.58,NNE,22,14.0,14.0,51,0.00,,,0.09,Wunderground v.1.15,2013-05-02 22:00:00,
2013-05-02 17:10:00,50.4,32.4,30.58,North,355,13.0,30.0,50,0.00,,,0.09,Wunderground v.1.15,2013-05-02 22:10:00,
2013-05-02 17:15:00,50.5,33.0,30.58,North,355,14.0,30.0,51,0.00,,,0.09,Wunderground v.1.15,2013-05-02 22:15:00,
2013-05-02 17:20:00,50.2,32.3,30.58,NE,38,13.0,30.0,50,0.00,,,0.09,Wunderground v.1.15,2013-05-02 22:20:00,
2013-05-02 17:30:00,50.3,32.8,30.58,North,355,12.0,12.0,51,0.00,,,0.09,Wunderground v.1.15,2013-05-02 22:30:00,
2013-05-02 17:35:00,50.5,34.5,30.57,NW,318,11.0,15.0,54,0.00,,,0.09,Wunderground v.1.15,2013-05-02 22:35:00,
2013-05-02 17:40:00,50.3,31.8,30.57,North,355,12.0,30.0,49,0.00,,,0.09,Wunderground v.1.15,2013-05-02 22:40:00,
2013-05-02 17:50:00,50.1,31.7,30.57,North,355,10.0,10.0,49,0.00,,,0.09,Wunderground v.1.15,2013-05-02 22:50:00,
2013-05-02 17:55:00,49.5,32.1,30.57,NNW,346,10.0,30.0,51,0.00,,,0.09,Wunderground v.1.15,2013-05-02 22:55:00,
2013-05-02 18:00:00,50.1,32.7,30.57,NNW,344,11.0,30.0,51,0.00,,,0.09,Wunderground v.1.15,2013-05-02 23:00:00,
2013-05-02 18:10:00,50.5,32.5,30.57,North,5,10.0,10.0,50,0.00,,,0.09,Wunderground v.1.15,2013-05-02 23:10:00,
2013-05-02 18:15:00,50.3,32.8,30.57,NNE,12,10.0,30.0,51,0.00,,,0.09,Wunderground v.1.15,2013-05-02 23:15:00,
2013-05-02 18:25:00,50.3,30.8,30.56,North,351,11.0,11.0,47,0.00,,,0.09,Wunderground v.1.15,2013-05-02 23:25:00,
2013-05-02 18:30:00,50.2,32.8,30.56,NE,38,11.0,30.0,51,0.00,,,0.09,Wunderground v.1.15,2013-05-02 23:30:00,
2013-05-02 18:39:00,49.0,33.1,30.56,North,355,9.0,30.0,54,0.00,,,0.09,Wunderground v.1.15,2013-05-02 23:39:00,
2013-05-02 18:45:00,49.0,33.1,30.56,NNW,348,8.0,30.0,54,0.00,,,0.09,Wunderground v.1.15,2013-05-02 23:45:00,
2013-05-02 18:50:00,49.6,32.2,30.56,North,360,9.0,30.0,51,0.00,,,0.09,Wunderground v.1.15,2013-05-02 23:50:00,
2013-05-02 18:55:00,49.7,31.8,30.55,NNE,32,10.0,30.0,50,0.00,,,0.09,Wunderground v.1.15,2013-05-02 23:55:00,
2013-05-02 19:00:00,49.6,32.2,30.56,North,5,10.0,30.0,51,0.00,,,0.09,Wunderground v.1.15,2013-05-03 00:00:00,
2013-05-02 19:10:00,49.2,31.8,30.55,North,355,12.0,12.0,51,0.00,,,0.09,Wunderground v.1.15,2013-05-03 00:10:00,
2013-05-02 19:15:00,49.2,30.8,30.55,NNW,347,10.0,30.0,49,0.00,,,0.09,Wunderground v.1.15,2013-05-03 00:15:00,
2013-05-02 19:20:00,49.1,31.2,30.55,North,5,9.0,30.0,50,0.00,,,0.09,Wunderground v.1.15,2013-05-03 00:20:00,
2013-05-02 19:30:00,48.7,32.3,30.55,North,9,8.0,30.0,53,0.00,,,0.09,Wunderground v.1.15,2013-05-03 00:30:00,
2013-05-02 19:35:00,48.5,31.7,30.54,NNE,17,7.0,30.0,52,0.00,,,0.09,Wunderground v.1.15,2013-05-03 00:35:00,
2013-05-02 19:45:00,48.1,31.8,30.54,North,11,9.0,30.0,53,0.00,,,0.09,Wunderground v.1.15,2013-05-03 00:45:00,
2013-05-02 19:50:00,47.9,31.6,30.54,NNE,21,8.0,30.0,53,0.00,,,0.09,Wunderground v.1.15,2013-05-03 00:50:00,
2013-05-02 20:00:00,47.3,31.5,30.54,NNE,16,7.0,30.0,54,0.00,,,0.09,Wunderground v.1.15,2013-05-03 01:00:00,
2013-05-02 20:05:00,47.0,32.1,30.54,NNE,13,7.0,30.0,56,0.00,,,0.09,Wunderground v.1.15,2013-05-03 01:05:00,
2013-05-02 20:10:00,46.6,32.2,30.54,North,360,7.0,7.0,57,0.00,,,0.09,Wunderground v.1.15,2013-05-03 01:10:00,
2013-05-02 20:20:00,45.9,31.9,30.54,North,355,6.0,6.0,58,0.00,,,0.09,Wunderground v.1.15,2013-05-03 01:20:00,
2013-05-02 20:30:00,44.8,32.2,30.54,North,11,5.0,30.0,61,0.00,,,0.09,Wunderground v.1.15,2013-05-03 01:30:00,
2013-05-02 20:35:00,44.5,31.9,30.53,NNE,22,6.0,30.0,61,0.00,,,0.09,Wunderground v.1.15,2013-05-03 01:35:00,
2013-05-02 20:40:00,44.2,31.6,30.54,NNE,26,7.0,30.0,61,0.00,,,0.09,Wunderground v.1.15,2013-05-03 01:40:00,
2013-05-02 20:50:00,43.5,31.3,30.54,NNE,25,7.0,30.0,62,0.00,,,0.09,Wunderground v.1.15,2013-05-03 01:50:00,
2013-05-02 20:55:00,43.3,31.1,30.54,NNE,26,7.0,30.0,62,0.00,,,0.09,Wunderground v.1.15,2013-05-03 01:55:00,
2013-05-02 21:00:00,42.9,31.2,30.53,NNE,22,7.0,30.0,63,0.00,,,0.09,Wunderground v.1.15,2013-05-03 02:00:00,
2013-05-02 21:10:00,42.3,31.0,30.54,NNE,20,6.0,6.0,64,0.00,,,0.09,Wunderground v.1.15,2013-05-03 02:10:00,
2013-05-02 21:15:00,42.0,30.7,30.53,NNE,20,5.0,30.0,64,0.00,,,0.09,Wunderground v.1.15,2013-05-03 02:15:00,
2013-05-02 21:20:00,41.6,30.7,30.53,NNE,20,4.0,30.0,65,0.00,,,0.09,Wunderground v.1.15,2013-05-03 02:20:00,
2013-05-02 21:30:00,41.3,30.8,30.53,NNE,20,4.0,30.0,66,0.00,,,0.09,Wunderground v.1.15,2013-05-03 02:30:00,
2013-05-02 21:35:00,41.1,30.6,30.53,NNE,21,4.0,30.0,66,0.00,,,0.09,Wunderground v.1.15,2013-05-03 02:35:00,
2013-05-02 21:40:00,40.8,30.7,30.53,NNE,21,4.0,4.0,67,0.00,,,0.09,Wunderground v.1.15,2013-05-03 02:40:00,
2013-05-02 21:45:00,40.5,30.8,30.54,NNE,20,4.0,30.0,68,0.00,,,0.09,Wunderground v.1.15,2013-05-03 02:45:00,
2013-05-02 21:55:00,40.2,30.8,30.53,NNE,20,3.0,30.0,69,0.00,,,0.09,Wunderground v.1.15,2013-05-03 02:55:00,
2013-05-02 22:00:00,40.0,31.0,30.53,NNE,17,3.0,30.0,70,0.00,,,0.09,Wunderground v.1.15,2013-05-03 03:00:00,
2013-05-02 22:05:00,39.7,30.7,30.53,North,11,3.0,30.0,70,0.00,,,0.09,Wunderground v.1.15,2013-05-03 03:05:00,
2013-05-02 22:15:00,39.2,30.9,30.53,North,9,3.0,30.0,72,0.00,,,0.09,Wunderground v.1.15,2013-05-03 03:15:00,
2013-05-02 22:20:00,38.9,30.6,30.52,North,9,3.0,3.0,72,0.00,,,0.09,Wunderground v.1.15,2013-05-03 03:20:00,
2013-05-02 22:30:00,38.5,30.3,30.52,North,5,3.0,30.0,72,0.00,,,0.09,Wunderground v.1.15,2013-05-03 03:30:00,
2013-05-02 22:35:00,38.4,30.5,30.52,North,5,3.0,30.0,73,0.00,,,0.09,Wunderground v.1.15,2013-05-03 03:35:00,
2013-05-02 22:44:00,38.3,30.4,30.52,North,350,4.0,30.0,73,0.00,,,0.09,Wunderground v.1.15,2013-05-03 03:44:00,
2013-05-02 22:50:00,38.2,30.3,30.52,North,350,4.0,30.0,73,0.00,,,0.09,Wunderground v.1.15,2013-05-03 03:50:00,
2013-05-02 22:55:00,38.0,30.1,30.52,North,350,3.0,30.0,73,0.00,,,0.09,Wunderground v.1.15,2013-05-03 03:55:00,
2013-05-02 23:00:00,37.6,30.1,30.52,North,350,3.0,3.0,74,0.00,,,0.09,Wunderground v.1.15,2013-05-03 04:00:00,
2013-05-02 23:05:00,37.4,29.9,30.52,North,350,3.0,30.0,74,0.00,,,0.09,Wunderground v.1.15,2013-05-03 04:05:00,
2013-05-02 23:10:00,37.3,29.8,30.51,North,350,3.0,30.0,74,0.00,,,0.09,Wunderground v.1.15,2013-05-03 04:10:00,
2013-05-02 23:15:00,37.1,29.6,30.52,North,350,3.0,30.0,74,0.00,,,0.09,Wunderground v.1.15,2013-05-03 04:15:00,
2013-05-02 23:19:00,37.0,29.5,30.51,North,350,3.0,3.0,74,0.00,,,0.09,Wunderground v.1.15,2013-05-03 04:19:00,
2013-05-02 23:25:00,37.0,29.5,30.51,North,350,3.0,4.0,74,0.00,,,0.09,Wunderground v.1.15,2013-05-03 04:25:00,
2013-05-02 23:30:00,37.2,29.3,30.51,North,350,3.0,30.0,73,0.00,,,0.09,Wunderground v.1.15,2013-05-03 04:30:00,
2013-05-02 23:35:00,37.3,29.4,30.51,North,350,3.0,30.0,73,0.00,,,0.09,Wunderground v.1.15,2013-05-03 04:35:00,
2013-05-02 23:40:00,37.2,29.3,30.51,North,350,4.0,30.0,73,0.00,,,0.09,Wunderground v.1.15,2013-05-03 04:40:00,
2013-05-02 23:50:00,37.3,29.1,30.50,NNW,346,4.0,4.0,72,0.00,,,0.09,Wunderground v.1.15,2013-05-03 04:50:00,
2013-05-02 23:55:00,37.2,29.0,30.50,NNW,342,4.0,5.0,72,0.00,,,0.09,Wunderground v.1.15,2013-05-03 04:55:00,